DMSP 5D-2 F13 DEB, 40517

Orbit data source: Space-Track

DMSP 5D-2 F13 DEB, 40517 is space debris in SSO originally from a launch on Fri, 24 Mar 1995 UTC launched from the Air Force Western Test Range (AFWTR). Debris objects in space refer to the collection of defunct objects orbiting the Earth. Examples of debris include non-operational satellites, rocket bodies, and fragments generated from explosions, collisions, or faulty payload assembly.

Loading next visibility...
Identifier
40517, 1995-015DD
Orbit
SSO
Country
Flag of USUS
Related business
Manufacturer
Unknown
Mission
Spacecraft
Bus & Motor
Unknown
Mass
Unknown
Launch date (UTC)
1995-03-24 (31 years ago)
Launch vehicle
Unknown
Launch site
Air Force Western Test Range (AFWTR)
Object type
Payload
Rocket body
Debris
Shape & HBR
Unknown shape, 0.1 m
Radar Cross Section
Medium (>0.1 m² and <1 m²)

Expand to show TLE details & history
Last TLE update: 12 hours ago

TLE from 12 hours ago
0 DMSP 5D-2 F13 DEB
1 40517U 95015DD  26198.61274916  .00003255  00000-0  77841-3 0  9994
2 40517  98.5855 252.4667 0017773  44.6696 315.5928 14.54206393590599
Epoch: 2026-07-17T14:42Z
TLE epoch observation values (Epoch: 2026-07-17T14:42:21.527Z)
Latitude
-0.00002°
Longitude
96.43966°
Altitude
705.915 km
Speed
7.508 km/s
True Right ascension
16h 49m 52s
True Declination
0° 00' 00"
Sunlit
Object was in full shadow at epoch
Visualization orbit readout
Latitude
Unknown
Longitude
Unknown
Altitude
Unknown
Speed
Unknown
Apparent Right ascension
Unknown
Apparent Declination
Unknown
Sunlit
N/A
Visualization observer readout
Local Sidereal Time
15:05:50
Azimuth
Unknown
Elevation
Unknown
Doppler factor
Unknown
Orbital elements
Apogee altitude
721.646 km
Perigee altitude
696.454 km
Semi-major axis
7,087.187 km
Eccentricity
0.00178
Inclination
98.5855°
RAAN
252.4667°
Arg. of periapsis
44.6696°
True anomaly
315.45006°
Mean anomaly
315.5928°
Eccentric anomaly
315.52145°
Mean motion
3.63775 °/min
Orbital period
98.96 mins
BSTAR
0.00077841

Documentation

Showing up to 5 results
|